Location: Star Hoppers Observatory
(42.7905°N, 83.6127°W)
Time: 10:06:59
(UTC-05:00)

NOSS 3-1 (A) - Visible Passes

Search period start: 01 March 2015 00:00
Search period end: 11 March 2015 01:00
Orbit: 886 x 1326 km, 63.4° (Epoch: 27 February)

Date Brightness Start Highest point End Pass type
(mag) Time Alt. Az. Time Alt. Az. Time Alt. Az.
01 Mar 5.9 20:18:52 10° NNW 20:22:05 13° N 20:25:24 10° NNE visible
01 Mar 5.7 22:11:04 10° NNW 22:14:47 19° N 22:14:47 19° N visible
02 Mar 6.3 00:01:29 10° NNW 00:02:14 13° NNW 00:02:14 13° NNW visible
02 Mar 5.9 19:32:55 10° NW 19:36:30 14° N 19:40:09 10° NNE visible
02 Mar 5.7 21:26:22 10° NNW 21:30:37 16° NNE 21:31:32 16° NNE visible
02 Mar 5.9 23:16:55 10° NNW 23:18:59 19° NNW 23:18:59 19° NNW visible
03 Mar 5.7 18:46:49 10° WNW 18:50:58 17° NNW 18:55:15 10° NNE visible
03 Mar 5.9 20:41:30 10° NNW 20:45:04 14° N 20:48:19 11° NE visible
03 Mar 5.6 22:32:22 10° NNW 22:35:45 23° N 22:35:45 23° N visible
04 Mar 6.4 00:22:57 10° NW 00:23:12 11° NW 00:23:12 11° NW visible
04 Mar 5.9 19:56:15 10° NNW 19:59:28 13° N 20:02:50 10° NNE visible
04 Mar 5.5 21:47:49 10° NNW 21:52:32 23° NNE 21:52:32 23° NNE visible
04 Mar 6.0 23:38:15 10° NNW 23:39:58 19° NNW 23:39:58 19° NNW visible
05 Mar 5.9 19:10:33 10° NW 19:13:51 14° N 19:17:15 10° NNE visible
05 Mar 5.5 21:03:12 10° NNW 21:07:56 18° NNE 21:09:19 18° NE visible
05 Mar 5.5 22:53:39 10° NNW 22:56:46 26° NNW 22:56:46 26° NNW visible
06 Mar 5.7 20:18:27 10° NNW 20:22:25 15° NNE 20:26:06 11° NE visible
06 Mar 5.2 22:09:05 10° NNW 22:13:33 30° N 22:13:33 30° N visible
06 Mar 6.1 23:59:48 10° NW 00:01:00 16° NW 00:01:00 16° NW visible
07 Mar 5.8 19:33:27 10° NNW 19:36:50 14° N 19:40:25 10° NE visible
07 Mar 5.2 21:24:33 10° NNW 21:30:22 27° NNE 21:30:22 27° NNE visible
07 Mar 5.6 23:15:03 10° NW 23:17:48 26° NNW 23:17:48 26° NNW visible
08 Mar 5.4 21:39:58 10° NNW 21:45:12 21° NNE 21:47:12 19° NE visible
08 Mar 5.1 23:30:24 10° NNW 23:34:39 37° NNW 23:34:39 37° NNW visible
09 Mar 6.4 01:21:47 10° NW 01:22:06 11° NW 01:22:06 11° NW visible
09 Mar 5.6 20:55:19 10° NNW 20:59:44 17° NNE 21:04:03 11° NE visible
09 Mar 4.7 22:45:49 10° NNW 22:51:30 40° NNE 22:51:30 40° NNE visible
10 Mar 5.8 00:36:43 10° NW 00:38:57 21° NW 00:38:57 21° NW visible
10 Mar 5.7 20:10:30 10° NNW 20:14:12 15° NNE 20:18:10 10° NE visible
10 Mar 4.8 22:01:16 10° NNW 22:07:40 32° NE 22:08:23 32° NE visible
10 Mar 5.2 23:51:53 10° NW 23:55:49 35° NW 23:55:49 35° NW visible
